Home > Time Zones > World Clock > Weather > Serbia > Niš > Past weeks

Flag for Serbia Weather past 2 weeks in Niš, Serbia

Now
63 °F

Light rain. Broken clouds.


Feels Like: 63 °F
Forecast: 56 / 78 °F
Wind: 7 mph from Northwest

Location: Nis Airport

Current Time: Jun 30, 2015 at 8:10:43 AM

Latest Report: Jun 30, 2015 at 7:30 AM


Visibility: N/A

Pressure: 30.09 "Hg

Humidity: 94%

Dew point: 61 °F

Location of NišLocation

Historic Weather in Niš — Graph

°F

Niš temperature yesterday

Maximum temperature yesterday: 79 °F (at 3:00 PM)
Minimum temperature yesterday: 63 °F (at 12:30 AM)
Average temperature yesterday: 70 °F

Past Weeks' High & Low Weather Summary

 TemperatureHumidityPressure
High91 °F (Jun 15, 4:00 PM)100% (Jun 16, 4:00 AM)30.21 "Hg (Jun 16, 4:00 AM)
Low50 °F (Jun 23, 4:30 AM)24% (Jun 15, 4:00 PM)29.80 "Hg (Jun 19, 6:00 PM)
Average65 °F72%29.98 "Hg
* Reported Jun 15 7:00 AM — Jun 30 7:00 AM, Niš, Weather by CustomWeather, © 2015

Note: Actual official high and low records may vary slightly from our data, if they occured in-between our weather recording intervals... More about our weather records

Advertising

Niš weather history for previous 24 hours

 ConditionsComfort  
Time TempWeatherWind HumidityBarometerVisibility
7:00 AM
Tue, Jun 30
63 °FLight rain. Broken clouds.2 mph88%30.09 "HgN/A
6:30 AM61 °FLight rain. Broken clouds.1 mph94%30.09 "HgN/A
6:00 AM61 °FRain. Broken clouds.6 mph94%30.09 "HgN/A
5:30 AM64 °FLight rain. Partly cloudy.16 mph88%30.09 "HgN/A
5:00 AM64 °FLight rain. Partly cloudy.10 mph88%30.07 "HgN/A
4:30 AM64 °FPartly cloudy.7 mph88%30.07 "HgN/A
4:00 AM64 °FPartly cloudy.8 mph83%30.07 "HgN/A
3:30 AM66 °FPartly cloudy.9 mph78%30.07 "HgN/A
3:00 AM66 °FPassing clouds.8 mph78%30.09 "HgN/A
2:30 AM64 °FPassing clouds.1 mph78%30.09 "HgN/A
2:00 AM68 °FPassing clouds.3 mph69%30.09 "HgN/A
1:30 AM68 °FPassing clouds.8 mph69%30.07 "HgN/A
1:00 AM68 °FPassing clouds.12 mph69%30.07 "HgN/A
12:30 AM68 °FPassing clouds.12 mph69%30.09 "HgN/A
11:00 PM
Mon, Jun 29
70 °FPassing clouds.10 mph64%30.09 "HgN/A
10:30 PM70 °FPassing clouds.10 mph64%30.09 "HgN/A
10:00 PM70 °FPassing clouds.10 mph64%30.07 "HgN/A
9:30 PM70 °FPassing clouds.9 mph64%30.07 "HgN/A
9:00 PM70 °FScattered clouds.8 mph57%30.07 "HgN/A
8:30 PM72 °FPassing clouds.3 mph53%30.07 "HgN/A
8:00 PM73 °FScattered clouds.3 mph50%30.07 "HgN/A
7:30 PM75 °FScattered clouds.9 mph47%30.04 "HgN/A
7:00 PM75 °FPassing clouds.14 mph47%30.04 "HgN/A
6:30 PM77 °FPassing clouds.14 mph44%30.04 "HgN/A
6:00 PM77 °FPassing clouds.16 mph47%30.04 "HgN/A
5:30 PM77 °FPassing clouds.16 mph51%30.04 "HgN/A
5:00 PM79 °FPassing clouds.16 mph48%30.04 "HgN/A
4:30 PM79 °FPassing clouds.16 mph48%30.04 "HgN/A
4:00 PM77 °FPassing clouds.17 mph51%30.04 "HgN/A
3:30 PM77 °FScattered clouds.16 mph51%30.04 "HgN/A
3:00 PM79 °FScattered clouds.13 mph51%30.04 "HgN/A
2:30 PM77 °FScattered clouds.13 mph54%30.07 "HgN/A
2:00 PM77 °FScattered clouds.16 mph51%30.07 "HgN/A
1:30 PM75 °FScattered clouds.18 mph54%30.07 "HgN/A
1:00 PM75 °FScattered clouds.18 mph57%30.07 "HgN/A
12:30 PM75 °FScattered clouds.17 mph57%30.09 "HgN/A
12:00 PM75 °FScattered clouds.18 mph57%30.09 "HgN/A
11:30 AM73 °FScattered clouds.17 mph61%30.09 "HgN/A
11:00 AM72 °FScattered clouds.15 mph65%30.09 "HgN/A
10:30 AM72 °FScattered clouds.15 mph65%30.09 "HgN/A
10:00 AM70 °FScattered clouds.13 mph69%30.09 "HgN/A
9:30 AM68 °FScattered clouds.15 mph73%30.09 "HgN/A
9:00 AM68 °FBroken clouds.15 mph73%30.09 "HgN/A
8:30 AM66 °FBroken clouds.13 mph78%30.09 "HgN/A
8:00 AM66 °FBroken clouds.13 mph78%30.07 "HgN/A
Weather by CustomWeather, © 2015

See weather overviewHow to use our weather pages